USA 115 (MILSTAR-1 2)

Last updated on Sun Dec 07 2025 00:02:45 GMT+0000 (Coordinated Universal Time)

1 23712U 95060A 25340.22287955 -.00000022 00000+0 00000+0 0 9992 2 23712 14.0025 5.1706 0003282 273.6715 116.6711 1.00273794 30957
UTC large
Height (km)
Speed (km/s)
/
Latitude / Longitude
Inclination (degrees)
Orbital Period (minutes)
Azimuth
Elevation
Range (km)
Doppler Factor

Next 0 passes for location: London (51.5072 / 0.1276)

Sorry there are no passes over London.